星链-2530 (STARLINK-2530 )

导读

STARLINK-2530是美国太空探索技术公司(SpaceX)星链(Starlink)星座中的一颗低轨卫星,于2021年4月29日发射入轨。星链星座旨在为全球提供高速宽带互联网接入服务,该卫星属于星链早期组网卫星,运行于近地轨道,配备相控阵天线与氪离子推进系统,可自主规避碰撞,承担天地通信转发任务,助力构建全球无缝覆盖的卫星互联网。

Basic Information
目录编号:
48303
目录名称:
STARLINK-2530
国际标识:
2021-036AD
轨道中心:
EARTH
卫星名称:
星链-2530
卫星全名:
星链-2530 (STARLINK-2530 )
卫星状态:
在轨 (已飞行1954 天)
发射日期:
2021-04-29 UTC
国别 :
美国 (US)
星等 :
--
Orbit Information
数据来源 国际轨道数据
星历时间: 2026-09-03T23:06:56+0800
18小时前
查看轨道信息
半长轴: 6848.864km
偏心率: 0.0001162
轨道倾角: 53.162°
近地点辐角 56.070°
升交点赤经 340.377°
平近点角 304.041°
近地点: 469.931km
远地点: 471.523km
周期: 94.013分钟
每日圈数: 15.317044
Detailed Information
固有亮度:
5
最大亮度:
2.5
卫星平台:
Starlink V1.0
覆盖范围:
全球
运营商:
太空探索技术公司
运营商所在国:
美国
制造商(研发单位):
太空探索技术公司
制造商所在国:
美国
使用方式:
暂无
Satellite Introduction
星链(Starlink)计划是由太空探索技术公司(SpaceX)提出的一个巨型低轨卫星互联网星座项目,计划在2019年至2024年间在太空搭建由约1.2万颗卫星组成的“星链”网络,其中1584颗将部署在地球上空550千米处的近地轨道,并从2020年开始工作。该卫星仍在工作。
2D Orbit Map
3D Orbit Map
Orbit Altitude Analysis Chart
Orbit Inclination Analysis Chart
Orbit Comprehensive Analysis Chart
View Comprehensive Chart
Conjunction Data List
Event ID Objects TCA Miss Dist (km) Collision Risk Probability Collision Risk Index (CRI) Action
CDM_260904-234504-830306-868621
2026-09-04T
23:45:15+0000
1.827 km
极远距离
3.54549E-6 低风险 0.46
CDM_260903-123604-830306-383322
HERMES 4 (63833)
2026-09-03T
12:36:03+0000
2.549 km
极远距离
1.680224E-6 低风险 0.4
CDM_260905-042304-830306-921921
2026-09-05T
04:23:25+0000
2.728 km
极远距离
1.181378E-6 低风险 0.36
CDM_260904-100104-830306-770821
2026-09-04T
10:01:49+0000
2.394 km
极远距离
1.143655E-6 低风险 0.36
CDM_260904-125404-830306-552121
2026-09-04T
12:54:37+0000
2.883 km
极远距离
8.677836E-7 极低风险 0.34